Location: Monrovia
(34.7865°N, 86.7139°W)
Time: 00:37:35
(UTC+00:00)

Geosat - Pass Details

Date: 14 July 2020
Orbit: 763 x 766 km, 108.0° (Epoch: 12 August)

Event Time Altitude Azimuth Distance (km) Brightness Sun altitude
Exits shadow 02:55:59 40° 144° (SE) 1,124 4.3 -19.7°
Maximum altitude 02:57:51 79° 64° (ENE) 781 3.9 -20.0°
Drops below altitude 10° 03:02:53 10° 338° (NNW) 2,306 7.5 -20.7°
Sets 03:05:10 0° 338° (NNW) 3,236 8.5 -21.0°
